Montpellier, France

1:01 PM CEST on March 26, 2017 (GMT +0200)
Montpellier / Mediterranee

Weather History for LFMT - August, 2013

Change the Weather History Date:

Tuesday, August 20, 2013

  Actual Average Record
Temperature  
Mean Temperature 76 °F -  
Max Temperature 89 °F 76 °F 89 °F (2003)
Min Temperature 64 °F 60 °F 60 °F (2014)
Cooling Degree Days 12    
Growing Degree Days 26 (Base 50)    
Moisture  
Dew Point 47 °F    
Average Humidity 35    
Maximum Humidity 56    
Minimum Humidity 13    
Precipitation  
Precipitation 0.00 in - - ()
Sea Level Pressure  
Sea Level Pressure 30.11 in    
Wind  
Wind Speed 10 mph ()    
Max Wind Speed 21 mph    
Max Gust Speed 28 mph    
Visibility 6.2 miles    
Events      
Averages and records for this station are not official NWS values.
T = Trace of Precipitation, MM = Missing Value Source: Averaged Metar Reports

Daily Weather History Graph

Daily Weather History Graph

Search for Another Location

Airport or City:

Trip Planner

Search our weather history database for the weather conditions in past years. The results will help you decide how hot, cold, wet, or windy it might be!

Date:

Astronomy

Aug. 20, 2013 Rise Set
Actual Time 6:54 AM CEST 8:39 PM CEST
Civil Twilight 6:23 AM CEST 9:10 PM CEST
Nautical Twilight 5:46 AM CEST 9:47 PM CEST
Astronomical Twilight 5:06 AM CEST 10:27 PM CEST
Moon 7:59 PM CEST (8/20) 6:06 AM CEST (8/20)
Length of Visible Light 14h 46m
Length of Day
13h 45m
Waxing Gibbous, 99% of the Moon is Illuminated
Aug 20
Waxing Gibbous
Aug 21
Full
Aug 28
Last Quarter
Sep 5
New
Sep 12
First Quarter

Hourly Weather History & Observations

Time (CEST) Temp. Dew Point Humidity Pressure Visibility Wind Dir Wind Speed Gust Speed Precip Events Conditions
12:00 AM 73.4 °F 55.4 °F 53% 30.15 in - North 5.8 mph - N/A   Clear
12:30 AM 73.4 °F 51.8 °F 47% 30.15 in - NNW 5.8 mph - N/A   Clear
1:00 AM 73.4 °F 46.4 °F 38% 30.15 in - NNW 11.5 mph - N/A   Clear
1:30 AM 71.6 °F 48.2 °F 43% 30.15 in 6.2 mi NW 6.9 mph - N/A   Unknown
2:00 AM 71 °F 47 °F 31% 30.17 in 37 mi WNW 10.4 mph - -   Clear
2:00 AM 71.6 °F 46.4 °F 41% 30.15 in 6.2 mi WNW 10.4 mph - N/A   Unknown
2:30 AM 69.8 °F 46.4 °F 43% 30.15 in 6.2 mi West 10.4 mph - N/A   Unknown
3:00 AM 69.8 °F 46.4 °F 43% 30.15 in 6.2 mi West 10.4 mph - N/A   Unknown
3:30 AM 68.0 °F 48.2 °F 49% 30.15 in 6.2 mi West 10.4 mph - N/A   Unknown
4:00 AM 66.2 °F 48.2 °F 52% 30.15 in 6.2 mi West 11.5 mph - N/A   Unknown
4:30 AM 66.2 °F 48.2 °F 52% 30.15 in 6.2 mi West 10.4 mph - N/A   Unknown
5:00 AM 66.2 °F 48.2 °F 52% 30.12 in - West 9.2 mph - N/A   Clear
5:30 AM 66.2 °F 46.4 °F 49% 30.12 in - West 6.9 mph - N/A   Clear
6:00 AM 66.2 °F 48.2 °F 52% 30.12 in - West 11.5 mph - N/A   Clear
6:30 AM 66.2 °F 48.2 °F 52% 30.12 in - West 10.4 mph - N/A   Clear
7:00 AM 64.4 °F 48.2 °F 56% 30.12 in - West 11.5 mph - N/A   Clear
7:30 AM 66.2 °F 48.2 °F 52% 30.12 in - West 13.8 mph - N/A   Clear
8:00 AM 67 °F 48 °F 39% 30.15 in 31 mi West 12.7 mph - -  
8:00 AM 68.0 °F 48.2 °F 49% 30.15 in - West 12.7 mph - N/A   Clear
8:30 AM 69.8 °F 48.2 °F 46% 30.12 in - NW 12.7 mph - N/A   Clear
9:09 AM 73.4 °F 46.4 °F 38% 30.15 in - NNW 12.7 mph - N/A   Clear
9:30 AM 75.2 °F 46.4 °F 36% 30.15 in - NNW 15.0 mph - N/A   Clear
10:00 AM 77.0 °F 44.6 °F 32% 30.15 in - North 16.1 mph 27.6 mph N/A   Clear
10:30 AM 78.8 °F 44.6 °F 30% 30.12 in - North 17.3 mph - N/A   Clear
11:00 AM 80.6 °F 44.6 °F 28% 30.12 in - North 20.7 mph - N/A   Clear
11:30 AM 80.6 °F 42.8 °F 26% 30.12 in - North 17.3 mph - N/A   Clear
12:00 PM 82.4 °F 42.8 °F 25% 30.12 in - North 15.0 mph - N/A   Clear
12:30 PM 82.4 °F 42.8 °F 25% 30.12 in - NNE 13.8 mph - N/A   Clear
1:00 PM 84.2 °F 42.8 °F 23% 30.12 in - North 15.0 mph - N/A   Clear
1:30 PM 86.0 °F 42.8 °F 22% 30.09 in - NNE 15.0 mph - N/A   Clear
2:00 PM 87 °F 44 °F 13% 30.11 in 31 mi North 13.8 mph - -  
2:00 PM 87.8 °F 42.8 °F 21% 30.09 in - North 13.8 mph - N/A   Clear
2:30 PM 87.8 °F 44.6 °F 22% 30.09 in - North 15.0 mph - N/A   Clear
3:00 PM 87.8 °F 42.8 °F 21% 30.09 in - NNE 15.0 mph - N/A   Clear
3:30 PM 87.8 °F 42.8 °F 21% 30.06 in - NNE 13.8 mph - N/A   Clear
4:00 PM 89.6 °F 44.6 °F 21% 30.06 in - North 12.7 mph - N/A   Clear
4:30 PM 89.6 °F 44.6 °F 21% 30.06 in - North 12.7 mph - N/A   Clear
5:00 PM 86.0 °F 50.0 °F 29% 30.06 in - NNE 8.1 mph - N/A   Clear
5:30 PM 89.6 °F 46.4 °F 22% 30.04 in - NNE 11.5 mph - N/A   Clear
6:00 PM 87.8 °F 48.2 °F 25% 30.04 in - North 11.5 mph - N/A   Clear
6:30 PM 87.8 °F 48.2 °F 25% 30.04 in - NNE 13.8 mph - N/A   Clear
7:00 PM 87.8 °F 48.2 °F 25% 30.04 in - NNE 13.8 mph - N/A   Clear
7:30 PM 86.0 °F 50.0 °F 29% 30.04 in - NNE 16.1 mph - N/A   Clear
8:00 PM 84 °F 49 °F 20% 30.07 in 31 mi NNE 13.8 mph - -  
8:00 PM 84.2 °F 50.0 °F 30% 30.06 in - NNE 13.8 mph - N/A   Clear
8:30 PM 82.4 °F 50.0 °F 32% 30.06 in - NNE 12.7 mph - N/A   Clear
9:00 PM 80.6 °F 50.0 °F 34% 30.06 in - NNE 11.5 mph - N/A   Clear
10:00 PM 78.8 °F 48.2 °F 34% 30.09 in - NNE 17.3 mph - N/A   Clear
10:30 PM 77.0 °F 48.2 °F 36% 30.09 in - North 10.4 mph - N/A   Clear
11:00 PM 75.2 °F 46.4 °F 36% 30.12 in - North 9.2 mph - N/A   Clear
11:30 PM 75.2 °F 46.4 °F 36% 30.09 in - North 9.2 mph - N/A   Clear